Location: Hartford
(41.7640°N, 72.6860°W)
Time: 14:22:06
(UTC-04:00)

Amateur Radio Satellites - All Passes

Search period start: 23 September 2017 13:52
Search period end: 24 September 2017 13:52
Location: Hartford, 41.7640°N, 72.6860°W

Satellite Date Start Highest point End Downlink Frequencies (MHz)
Time Altitude Azimuth
VELOX 1 23 Sep 13:52:20 13:56:42 64° 286° (WNW) 14:01:01 145.980
SPROUT 23 Sep 13:54:16 13:58:19 42° 288° (WNW) 14:02:21 437.525
Oscar 19 23 Sep 13:58:13 14:03:17 53° 260° (W) 14:08:23 437.125/150
NO-84 23 Sep 14:17:18 14:20:50 37° 325° (NW) 14:24:07 435.350 FM
PCSat 23 Sep 14:24:13 14:29:10 38° 111° (ESE) 14:34:08 145.827
SO-50 23 Sep 14:29:32 14:34:01 85° 121° (ESE) 14:38:33 436.795
50 SAT 23 Sep 14:33:01 14:36:14 48° 286° (WNW) 14:39:26 437.505
AO-7 23 Sep 14:49:19 14:57:27 60° 65° (ENE) 15:05:33 .
UKube-1 23 Sep 14:55:43 15:00:02 78° 284° (WNW) 15:04:19 .
DX 1 23 Sep 15:02:17 15:06:22 42° 289° (WNW) 15:10:27 434.975-435.025
ITAMSAT 1 23 Sep 15:02:36 15:07:27 43° 69° (ENE) 15:12:20 435.822/435.867
ITUPSAT 1 23 Sep 15:04:52 15:07:45 16° 91° (E) 15:10:39 437.325
YUBILEINY 23 Sep 15:19:52 15:23:41 13° 304° (WNW) 15:27:32 435.215
Gurwin Techsat 1B 23 Sep 15:23:20 15:26:05 14° 270° (W) 15:28:51 435.225
BEESAT 23 Sep 15:40:31 15:44:58 36° 98° (E) 15:49:22 436.000
RS-15 23 Sep 15:47:08 15:58:28 54° 249° (WSW) 16:09:14 29.354- 29.394
NO-84 23 Sep 15:57:50 15:59:00 11° 344° (NNW) 16:00:06 435.350 FM
PCSat 23 Sep 16:07:42 16:12:35 33° 309° (NW) 16:17:29 145.827
SO-50 23 Sep 16:12:26 16:15:05 15° 322° (NW) 16:17:46 436.795
MOZHAYETS 4 23 Sep 16:13:47 16:18:28 84° 103° (ESE) 16:23:06
CUBESAT XI-V 23 Sep 16:39:50 16:44:01 33° 96° (E) 16:48:09 437.345
ITUPSAT 1 23 Sep 16:41:12 16:45:56 56° 287° (WNW) 16:50:37 437.325
ITAMSAT 1 23 Sep 16:43:01 16:47:05 23° 266° (W) 16:51:09 435.822/435.867
AO-7 23 Sep 16:43:24 16:50:34 31° 264° (W) 16:57:47 .
CUTE-I 23 Sep 16:51:32 16:54:29 15° 59° (ENE) 16:57:25 437.470
XW-2B 23 Sep 16:52:40 16:53:21 10° 63° (ENE) 16:54:02 145.730 - 145.750
DOVE 4 23 Sep 16:57:31 17:01:48 49° 73° (ENE) 17:05:54 437.250
XW-2C 23 Sep 17:11:51 17:14:29 18° 67° (ENE) 17:17:08 145.795 - 145.815
NUDT-PHONESAT 23 Sep 17:15:17 17:17:13 14° 65° (ENE) 17:19:10 437.300
BEESAT 23 Sep 17:18:39 17:22:32 25° 294° (WNW) 17:26:24 436.000
LilacSat-2 23 Sep 17:23:17 17:26:30 26° 69° (ENE) 17:29:44 437.200
KAITUO 1B 23 Sep 17:41:59 17:45:17 29° 70° (ENE) 17:48:35 145.475/437.950
MOZHAYETS 4 23 Sep 17:53:30 17:54:54 11° 300° (WNW) 17:56:17
XW-2D 23 Sep 18:10:46 18:14:37 86° 257° (WSW) 18:18:29 145.860 - 145.880
HO-68 23 Sep 18:10:50 18:17:14 37° 63° (ENE) 18:23:38 435.675
KKS-1 23 Sep 18:11:38 18:16:06 78° 286° (WNW) 18:20:32 437.445
CUBEBUG 2 23 Sep 18:12:38 18:13:43 11° 60° (ENE) 18:14:49 437.445
CUBESAT XI-V 23 Sep 18:17:26 18:21:14 25° 293° (WNW) 18:25:00 437.345
XW-2B 23 Sep 18:23:11 18:26:59 63° 260° (W) 18:30:49 145.730 - 145.750
XW-2F 23 Sep 18:23:15 18:27:03 66° 259° (W) 18:30:53 145.980 - 146.000
CUTE-I 23 Sep 18:28:33 18:33:52 77° 257° (WSW) 18:39:12 437.470
STARS 23 Sep 18:36:16 18:40:41 80° 103° (ESE) 18:45:06 437.465
DOVE 4 23 Sep 18:37:20 18:39:44 14° 268° (W) 18:42:05 437.250
XW-2C 23 Sep 18:44:55 18:48:25 33° 263° (W) 18:51:56 145.795 - 145.815
NUDT-PHONESAT 23 Sep 18:47:07 18:50:42 42° 261° (W) 18:54:18 437.300
SEEDS 23 Sep 18:49:30 18:53:11 29° 69° (ENE) 18:56:51 437.485
LilacSat-2 23 Sep 18:57:37 19:00:43 23° 265° (W) 19:03:50 437.200
XW-2A 23 Sep 19:03:13 19:06:01 24° 70° (ENE) 19:08:50 145.665 - 145.685
AO-73 23 Sep 19:04:23 19:05:49 11° 61° (ENE) 19:07:16 145.935
ZACube-1 23 Sep 19:06:22 19:08:32 14° 62° (ENE) 19:10:44 437.345
AAUSAT CUBESAT 2 23 Sep 19:12:48 19:16:07 24° 68° (ENE) 19:19:27 437.432
NO-84 23 Sep 19:13:41 19:16:07 21° 28° (NNE) 19:18:28 435.350 FM
KAITUO 1B 23 Sep 19:16:31 19:19:17 19° 266° (W) 19:22:04 145.475/437.950
CUTE 1.7 + AOD 2 23 Sep 19:16:40 19:20:58 85° 257° (WSW) 19:25:17 437.475
BEESAT 3 23 Sep 19:33:20 19:37:07 42° 117° (ESE) 19:40:57 437.485
Tancredo 1 23 Sep 19:37:46 19:40:26 65° 142° (SE) 19:43:06 437.200
BEESAT 2 23 Sep 19:42:03 19:44:32 16° 110° (ESE) 19:47:03 435.950
STRAND 1 23 Sep 19:44:32 19:49:12 34° 97° (E) 19:53:50 437.568
CUBEBUG 2 23 Sep 19:45:25 19:49:38 76° 258° (WSW) 19:54:02 437.445
UWE-3 23 Sep 19:52:18 19:56:34 74° 77° (ENE) 20:01:00 435.000/436.395/437.385
AO-85 23 Sep 19:56:36 19:59:41 23° 113° (ESE) 20:02:48 145.980
HO-68 23 Sep 19:58:03 20:04:48 44° 261° (W) 20:11:36 435.675
ISS 23 Sep 20:03:01 20:05:13 17° 132° (SE) 20:07:27 437.550
STARS 23 Sep 20:15:12 20:16:22 11° 300° (WNW) 20:17:32 437.465
SEEDS 23 Sep 20:25:24 20:28:50 24° 266° (W) 20:32:17 437.485
Oscar 11 23 Sep 20:36:09 20:40:29 77° 75° (ENE) 20:44:51 .
XW-2A 23 Sep 20:36:17 20:38:42 18° 266° (W) 20:41:09 145.665 - 145.685
AO-73 23 Sep 20:37:04 20:41:22 75° 258° (WSW) 20:45:50 145.935
ZACube-1 23 Sep 20:39:59 20:44:15 61° 260° (W) 20:48:40 437.345
nSIGHT-1 23 Sep 20:41:24 20:44:30 44° 139° (SE) 20:47:36 .
DELFI C3 23 Sep 20:41:57 20:44:44 19° 67° (ENE) 20:47:31 145.870
AAUSAT CUBESAT 2 23 Sep 20:47:48 20:51:26 29° 264° (W) 20:55:04 437.432
NO-84 23 Sep 20:50:48 20:53:34 36° 227° (SW) 20:56:13 435.350 FM
BEESAT 3 23 Sep 21:11:46 21:14:51 21° 315° (NW) 21:17:57 437.485
EO-88 23 Sep 21:11:53 21:14:41 21° 69° (ENE) 21:17:31 145.990 - 145.960
Tancredo 1 23 Sep 21:13:10 21:15:09 18° 340° (NNW) 21:17:08 437.200
FO-29 23 Sep 21:16:27 21:21:22 31° 97° (E) 21:26:43 435.910
BEESAT 2 23 Sep 21:18:01 21:21:53 47° 307° (NW) 21:25:50 435.950
SO-50 23 Sep 21:21:24 21:23:47 14° 37° (NE) 21:26:10 436.795
STRAND 1 23 Sep 21:23:49 21:28:15 30° 294° (WNW) 21:32:42 437.568
YUBILEINY 23 Sep 21:32:28 21:35:51 12° 55° (NE) 21:39:14 435.215
AO-85 23 Sep 21:36:27 21:39:55 30° 311° (NW) 21:43:27 145.980
ISS 23 Sep 21:38:10 21:41:24 56° 328° (NNW) 21:44:39 437.550
Max Valier Satellite 23 Sep 21:43:53 21:47:34 73° 76° (ENE) 21:51:17 145.860
UNISAT 6 23 Sep 22:08:25 22:12:36 32° 96° (E) 22:16:47 437.425
LO-87 23 Sep 22:09:13 22:10:53 13° 66° (ENE) 22:12:33 145.935 - 145.965
DELFI C3 23 Sep 22:15:40 22:19:15 33° 263° (W) 22:22:51 145.870
nSIGHT-1 23 Sep 22:18:05 22:20:56 28° 337° (NNW) 22:23:47 .
TIGRISAT 23 Sep 22:31:49 22:36:24 51° 100° (E) 22:40:58 435.000
EO-88 23 Sep 22:45:11 22:48:14 24° 265° (W) 22:51:17 145.990 - 145.960
ESTCUBE 1 23 Sep 22:45:15 22:49:10 29° 68° (ENE) 22:53:05 437.505/2401.250
Tancredo 1 23 Sep 22:49:48 22:50:28 11° 0° (N) 22:51:06 437.200
SO-50 23 Sep 23:00:21 23:04:58 80° 56° (NE) 23:09:37 436.795
FO-29 23 Sep 23:01:30 23:06:28 36° 291° (WNW) 23:11:54 435.910
PRISM 23 Sep 23:04:29 23:08:31 62° 101° (ESE) 23:12:32 437.425
PCSat 23 Sep 23:11:29 23:16:26 34° 51° (NE) 23:21:20 145.827
SPROUT 23 Sep 23:13:40 23:15:54 14° 63° (ENE) 23:18:10 437.525
ISS 23 Sep 23:16:06 23:18:25 18° 348° (NNW) 23:20:44 437.550
VELOX 1 23 Sep 23:16:11 23:17:51 12° 61° (ENE) 23:19:31 145.980
AIST 2D 23 Sep 23:24:56 23:27:37 20° 94° (E) 23:30:18 435.315
YUBILEINY 23 Sep 23:26:00 23:34:40 64° 78° (ENE) 23:43:20 435.215
LO-87 23 Sep 23:40:38 23:43:57 38° 262° (W) 23:47:17 145.935 - 145.965
UNISAT 6 23 Sep 23:45:15 23:49:11 27° 292° (WNW) 23:53:07 437.425
NANOSAT C BR1 23 Sep 23:50:09 23:52:40 15° 92° (E) 23:55:12 145.865
nSIGHT-1 23 Sep 23:56:09 23:58:03 15° 357° (N) 23:59:58 .
TIGRISAT 24 Sep 00:09:32 00:12:40 18° 296° (WNW) 00:15:49 435.000
DUCHIFAT 1 24 Sep 00:17:37 00:21:15 27° 96° (E) 00:24:52 145.980
ESTCUBE 1 24 Sep 00:22:03 00:25:54 27° 264° (W) 00:29:48 437.505/2401.250
DX 1 24 Sep 00:23:14 00:25:58 17° 64° (ENE) 00:28:43 434.975-435.025
Tancredo 1 24 Sep 00:23:46 00:25:45 18° 20° (NNE) 00:27:45 437.200
POLYITAN 1 24 Sep 00:31:16 00:35:27 49° 100° (E) 00:39:36 437.675
EO-79 24 Sep 00:35:28 00:39:41 55° 100° (E) 00:43:53 145.935-145.965
PRISM 24 Sep 00:41:49 00:43:16 12° 298° (WNW) 00:44:43 437.425
SO-50 24 Sep 00:43:14 00:44:47 12° 252° (WSW) 00:46:20 436.795
SPROUT 24 Sep 00:47:12 00:51:20 54° 260° (W) 00:55:31 437.525
QB50P2 24 Sep 00:49:07 00:53:25 87° 101° (E) 00:57:42 145.880/145.840
VELOX 1 24 Sep 00:49:18 00:53:42 71° 257° (WSW) 00:58:06 145.980
BUGSAT 1 24 Sep 00:52:43 00:55:33 17° 93° (E) 00:58:23 437.445
ISS 24 Sep 00:53:43 00:55:50 16° 8° (N) 00:57:59 437.550
PCSat 24 Sep 00:54:53 00:59:49 37° 249° (WSW) 01:04:44 145.827
AIST 2D 24 Sep 00:57:56 01:00:45 23° 290° (WNW) 01:03:32 435.315
50 SAT 24 Sep 01:02:34 01:05:45 48° 74° (ENE) 01:08:58 437.505
YUBILEINY 24 Sep 01:23:49 01:30:47 28° 278° (W) 01:37:48 435.215
NANOSAT C BR1 24 Sep 01:24:31 01:28:37 46° 288° (WNW) 01:32:41 145.865
nSIGHT-1 24 Sep 01:32:44 01:35:17 21° 17° (NNE) 01:37:50 .
UKube-1 24 Sep 01:49:54 01:54:12 89° 115° (ESE) 01:58:32 .
DUCHIFAT 1 24 Sep 01:53:15 01:56:49 26° 292° (WNW) 02:00:23 145.980
Gurwin Techsat 1B 24 Sep 01:56:44 02:01:15 28° 95° (E) 02:05:44 435.225
DX 1 24 Sep 01:57:35 02:01:46 47° 260° (W) 02:05:58 434.975-435.025
Tancredo 1 24 Sep 01:57:48 02:00:29 64° 216° (SW) 02:03:08 437.200
POLYITAN 1 24 Sep 02:08:13 02:10:49 16° 296° (WNW) 02:13:25 437.675
Oscar 19 24 Sep 02:09:22 02:14:25 53° 100° (E) 02:19:26 437.125/150
ITUPSAT 1 24 Sep 02:11:44 02:15:11 20° 64° (ENE) 02:18:39 437.325
EO-79 24 Sep 02:12:40 02:14:59 14° 297° (WNW) 02:17:16 145.935-145.965
M-CUBED/EXP-1 PRIME 24 Sep 02:15:41 02:18:51 41° 292° (WNW) 02:21:55 437.505
BUGSAT 1 24 Sep 02:27:06 02:31:03 40° 288° (WNW) 02:35:00 437.445
ISS 24 Sep 02:29:51 02:33:00 39° 28° (NNE) 02:36:07 437.550
O/OREOS (USA 219) 24 Sep 02:46:10 02:50:40 81° 293° (WNW) 02:55:14 437.305
BEESAT 24 Sep 02:46:55 02:51:25 44° 70° (ENE) 02:55:57 436.000
AO-7 24 Sep 02:52:30 02:57:26 17° 90° (E) 03:02:21 .
nSIGHT-1 24 Sep 03:08:42 03:11:58 88° 211° (SSW) 03:15:13 .
MOZHAYETS 4 24 Sep 03:15:26 03:20:03 81° 76° (ENE) 03:24:42
ITAMSAT 1 24 Sep 03:16:29 03:19:18 15° 91° (E) 03:22:06 435.822/435.867
Gurwin Techsat 1B 24 Sep 03:36:21 03:41:15 38° 292° (WNW) 03:46:07 435.225
KKS-1 24 Sep 03:37:08 03:38:04 11° 60° (ENE) 03:39:01 437.445
CUBESAT XI-V 24 Sep 03:43:06 03:47:19 34° 70° (ENE) 03:51:33 437.345
ITUPSAT 1 24 Sep 03:48:04 03:52:39 46° 260° (W) 03:57:17 437.325
Oscar 19 24 Sep 03:49:37 03:53:20 20° 297° (WNW) 03:57:02 437.125/150
BEESAT 3 24 Sep 03:49:48 03:53:18 28° 48° (NE) 03:56:43 437.485
BEESAT 2 24 Sep 03:58:43 04:00:57 14° 40° (NE) 04:03:11 435.950
RS-15 24 Sep 03:59:25 04:09:00 28° 102° (ESE) 04:18:36 29.354- 29.394
ISS 24 Sep 04:06:33 04:09:22 26° 225° (SW) 04:12:11 437.550
BEESAT 24 Sep 04:25:55 04:29:23 20° 267° (W) 04:32:52 436.000
AO-85 24 Sep 04:25:57 04:29:45 28° 48° (NE) 04:33:47 145.980
O/OREOS (USA 219) 24 Sep 04:30:16 04:30:51 10° 312° (NW) 04:31:27 437.305
AO-7 24 Sep 04:42:56 04:51:17 85° 108° (ESE) 04:59:36 .
ITAMSAT 1 24 Sep 04:54:03 04:59:14 69° 287° (WNW) 05:04:25 435.822/435.867
DOVE 4 24 Sep 04:57:15 04:58:55 12° 91° (E) 05:00:37 437.250
KKS-1 24 Sep 05:09:31 05:13:57 82° 258° (WSW) 05:18:23 437.445
CUBESAT XI-V 24 Sep 05:20:50 05:24:42 25° 266° (W) 05:28:35 437.345
BEESAT 3 24 Sep 05:27:24 05:30:46 27° 246° (WSW) 05:34:05 437.485
STARS 24 Sep 05:32:42 05:37:01 72° 75° (ENE) 05:41:23 437.465
BEESAT 2 24 Sep 05:35:08 05:39:12 75° 239° (WSW) 05:43:10 435.950
XW-2F 24 Sep 05:56:47 05:58:19 12° 91° (E) 05:59:49 145.980 - 146.000
XW-2B 24 Sep 05:56:56 05:58:44 13° 91° (E) 06:00:29 145.730 - 145.750
AO-85 24 Sep 06:06:03 06:10:13 38° 244° (WSW) 06:14:40 145.980
RS-15 24 Sep 06:07:47 06:20:07 84° 304° (WNW) 06:32:30 29.354- 29.394
XW-2C 24 Sep 06:17:13 06:20:18 23° 95° (E) 06:23:22 145.795 - 145.815
NUDT-PHONESAT 24 Sep 06:17:47 06:20:11 16° 93° (E) 06:22:35 437.300
LilacSat-2 24 Sep 06:29:44 06:33:17 35° 97° (E) 06:36:47 437.200
DOVE 4 24 Sep 06:32:46 06:36:56 59° 286° (WNW) 06:41:17 437.250
AO-7 24 Sep 06:36:59 06:43:06 24° 308° (NW) 06:49:12 .
CUTE-I 24 Sep 06:45:22 06:50:25 41° 99° (E) 06:55:26 437.470
KAITUO 1B 24 Sep 06:46:10 06:49:41 37° 98° (E) 06:53:09 145.475/437.950
STRAND 1 24 Sep 07:00:31 07:05:24 49° 71° (ENE) 07:10:20 437.568
CUTE 1.7 + AOD 2 24 Sep 07:02:24 07:05:03 16° 92° (E) 07:07:40 437.475
STARS 24 Sep 07:13:27 07:13:50 10° 271° (W) 07:14:13 437.465
XW-2D 24 Sep 07:17:00 07:20:46 59° 286° (WNW) 07:24:29 145.860 - 145.880
HO-68 24 Sep 07:25:05 07:31:39 37° 97° (E) 07:38:11 435.675
XW-2F 24 Sep 07:29:02 07:32:41 45° 287° (WNW) 07:36:17 145.980 - 146.000
XW-2B 24 Sep 07:29:29 07:33:07 43° 287° (WNW) 07:36:42 145.730 - 145.750
FO-29 24 Sep 07:32:38 07:35:01 13° 60° (ENE) 07:37:21 435.910
CUBEBUG 2 24 Sep 07:36:00 07:39:49 24° 94° (E) 07:43:39 437.445
UWE-3 24 Sep 07:42:31 07:45:27 16° 91° (E) 07:48:22 435.000/436.395/437.385
NUDT-PHONESAT 24 Sep 07:50:47 07:54:09 32° 289° (WNW) 07:57:28 437.300
XW-2C 24 Sep 07:51:18 07:54:24 24° 291° (WNW) 07:57:29 145.795 - 145.815
XW-2A 24 Sep 07:56:48 07:59:38 24° 96° (E) 08:02:27 145.665 - 145.685
LilacSat-2 24 Sep 08:04:47 08:07:16 17° 294° (WNW) 08:09:44 437.200
SEEDS 24 Sep 08:07:48 08:11:55 53° 100° (E) 08:15:58 437.485
KAITUO 1B 24 Sep 08:21:10 08:23:20 15° 294° (WNW) 08:25:30 145.475/437.950
RS-15 24 Sep 08:23:52 08:34:40 33° 330° (NNW) 08:45:24 29.354- 29.394
Oscar 11 24 Sep 08:24:36 08:26:52 14° 91° (E) 08:29:06 .
AO-73 24 Sep 08:25:13 08:28:46 22° 93° (E) 08:32:16 145.935
CUTE-I 24 Sep 08:25:51 08:30:13 26° 295° (WNW) 08:34:36 437.470
ZACube-1 24 Sep 08:28:10 08:32:02 26° 94° (E) 08:35:52 437.345
AAUSAT CUBESAT 2 24 Sep 08:28:54 08:32:47 39° 98° (E) 08:36:38 437.432
CUTE 1.7 + AOD 2 24 Sep 08:37:05 08:41:05 42° 288° (WNW) 08:45:03 437.475
STRAND 1 24 Sep 08:41:11 08:44:51 20° 267° (W) 08:48:32 437.568
UNISAT 6 24 Sep 09:07:39 09:11:19 27° 68° (ENE) 09:15:04 437.425
CUBEBUG 2 24 Sep 09:12:10 09:16:28 36° 290° (WNW) 09:20:48 437.445
HO-68 24 Sep 09:12:42 09:19:25 44° 295° (WNW) 09:26:08 435.675
FO-29 24 Sep 09:13:47 09:19:31 84° 257° (WSW) 09:24:48 435.910
UWE-3 24 Sep 09:17:37 09:22:10 52° 287° (WNW) 09:26:42 435.000/436.395/437.385
XW-2A 24 Sep 09:29:44 09:32:12 19° 292° (WNW) 09:34:39 145.665 - 145.685
TIGRISAT 24 Sep 09:30:38 09:34:44 43° 71° (ENE) 09:38:57 435.000
SEEDS 24 Sep 09:44:59 09:47:07 14° 296° (WNW) 09:49:16 437.485
DELFI C3 24 Sep 09:52:03 09:55:24 27° 96° (E) 09:58:44 145.870
PRISM 24 Sep 09:53:37 09:57:31 44° 72° (ENE) 10:01:25 437.425
Oscar 11 24 Sep 09:59:04 10:03:18 52° 287° (WNW) 10:07:30 .
AO-73 24 Sep 10:00:51 10:05:05 37° 289° (WNW) 10:09:14 145.935
ZACube-1 24 Sep 10:04:14 10:08:16 31° 291° (WNW) 10:12:18 437.345
AAUSAT CUBESAT 2 24 Sep 10:05:14 10:07:56 17° 294° (WNW) 10:10:37 437.432
EO-88 24 Sep 10:13:06 10:16:11 25° 96° (E) 10:19:14 145.990 - 145.960
YUBILEINY 24 Sep 10:36:55 10:40:19 13° 73° (ENE) 10:43:41 435.215
RS-15 24 Sep 10:43:07 10:52:26 24° 5° (N) 11:01:29 29.354- 29.394
NANOSAT C BR1 24 Sep 10:43:24 10:45:09 12° 62° (ENE) 10:46:55 145.865
UNISAT 6 24 Sep 10:44:14 10:47:57 27° 265° (W) 10:51:46 437.425
Max Valier Satellite 24 Sep 10:47:02 10:50:48 83° 283° (WNW) 10:54:31 145.860
LO-87 24 Sep 11:07:55 11:10:01 15° 93° (E) 11:12:07 145.935 - 145.965
TIGRISAT 24 Sep 11:08:46 11:11:39 17° 268° (W) 11:14:34 435.000
DUCHIFAT 1 24 Sep 11:09:52 11:13:00 21° 66° (ENE) 11:16:09 145.980
O/OREOS (USA 219) 24 Sep 11:17:15 11:20:52 22° 56° (NE) 11:24:29 437.305
POLYITAN 1 24 Sep 11:23:51 11:27:42 37° 71° (ENE) 11:31:37 437.675
DELFI C3 24 Sep 11:26:58 11:30:01 22° 292° (WNW) 11:33:03 145.870
M-CUBED/EXP-1 PRIME 24 Sep 11:27:38 11:30:41 20° 63° (ENE) 11:33:35 437.505
EO-79 24 Sep 11:27:51 11:31:46 41° 72° (ENE) 11:35:45 145.935-145.965
PRISM 24 Sep 11:30:40 11:33:00 15° 268° (W) 11:35:20 437.425
AIST 2D 24 Sep 11:31:13 11:34:43 63° 259° (WSW) 11:38:17 435.315
QB50P2 24 Sep 11:41:28 11:45:38 65° 74° (ENE) 11:49:50 145.880/145.840
BUGSAT 1 24 Sep 11:43:45 11:45:33 13° 63° (ENE) 11:47:22 437.445
EO-88 24 Sep 11:46:56 11:49:41 20° 292° (WNW) 11:52:26 145.990 - 145.960
Oscar 19 24 Sep 11:51:39 11:52:59 11° 57° (ENE) 11:54:19 437.125/150
NO-84 24 Sep 12:06:22 12:09:27 22° 129° (SE) 12:12:23 435.350 FM
ESTCUBE 1 24 Sep 12:13:16 12:17:43 60° 101° (E) 12:22:09 437.505/2401.250
NANOSAT C BR1 24 Sep 12:16:11 12:20:19 62° 259° (W) 12:24:30 145.865
YUBILEINY 24 Sep 12:26:47 12:35:25 72° 93° (E) 12:44:04 435.215
SPROUT 24 Sep 12:32:47 12:36:16 24° 95° (E) 12:39:45 437.525
VELOX 1 24 Sep 12:39:37 12:42:54 20° 94° (E) 12:46:10 145.980
LO-87 24 Sep 12:40:15 12:43:32 33° 288° (WNW) 12:46:48 145.935 - 145.965
DUCHIFAT 1 24 Sep 12:44:39 12:48:26 33° 263° (W) 12:52:16 145.980
O/OREOS (USA 219) 24 Sep 12:56:07 13:00:26 40° 254° (WSW) 13:04:42 437.305
RS-15 24 Sep 12:58:01 13:09:23 43° 39° (NE) 13:20:10 29.354- 29.394
POLYITAN 1 24 Sep 13:00:38 13:03:37 19° 267° (W) 13:06:37 437.675
M-CUBED/EXP-1 PRIME 24 Sep 13:00:53 13:04:53 38° 256° (WSW) 13:08:39 437.505
EO-79 24 Sep 13:04:59 13:07:43 17° 268° (W) 13:10:28 145.935-145.965
SO-50 24 Sep 13:15:38 13:19:10 23° 112° (ESE) 13:22:42 436.795
BUGSAT 1 24 Sep 13:16:29 13:20:25 55° 259° (W) 13:24:25 437.445
Gurwin Techsat 1B 24 Sep 13:17:52 13:22:53 45° 70° (ENE) 13:27:57 435.225
QB50P2 24 Sep 13:20:57 13:21:51 11° 271° (W) 13:22:44 145.880/145.840
Oscar 19 24 Sep 13:26:14 13:31:25 79° 74° (ENE) 13:36:39 437.125/150
UKube-1 24 Sep 13:38:00 13:40:18 14° 92° (E) 13:42:37 .
NO-84 24 Sep 13:42:59 13:46:42 47° 323° (NW) 13:50:09 435.350 FM
